Volver al catálogo

EUTE HOT BIRD 13B

HB 8

ActivoComunicacionesGEO
NORAD 29270·PAYLOAD·🇪🇺 EU

Lanzado Aug 4, 2006 desde Baikonur Cosmodrome

Loading…

TLE

ActualizadoSource: Space-Track

Época: Sep 14, 2026, 22:30 UTC

1 29270U 06032A   26257.93812081  .00000149  00000-0  00000-0 0  9999
2 29270   1.8873  81.1151 0003326  92.0628 191.5822  1.00275789 48208

Sigue EUTE HOT BIRD 13B en tiempo real con AllMySat

Download on the App Store